RH
54 55 55 54 51 43 37 35 35 36 35 34 34 33 31 30 29 28 29 29 28 27 25 24 23 23 24 25 26 30 35 40 45 50 51 52 53 54 54 56 56 56 59 60 58 57 55 51 48 51 55 59 62 64 66 68 68 67 65 62 60 57 51 48 43 34 35 44 47 45 44 42 38 37 35 32 30 28 28 35 43 48 53 57 64
55 55 56 55 54 50 44 38 36 37 37 36 35 35 34 32 30 30 29 28 28 27 25 24 24 23 22 23 24 26 29 32 37 43 47 49 51 54 55 55 54 54 55 55 55 56 55 53 51 51 52 53 57 61 65 68 67 65 64 62 59 57 54 54 52 44 38 42 47 46 44 41 36 32 30 28 26 25 27 31 37 43 49 55 60
55 56 57 56 56 55 52 47 42 39 38 36 35 35 36 36 35 33 29 27 28 27 25 24 24 24 23 21 22 24 26 29 32 36 41 46 48 50 53 54 54 53 51 51 51 53 54 52 50 50 51 50 50 54 59 61 60 58 57 57 53 52 53 56 58 55 46 39 37 39 39 37 32 28 27 26 26 26 27 29 33 37 44 52 57
57 57 57 58 58 57 58 56 51 46 39 34 32 32 34 37 40 38 32 29 28 26 25 24 24 24 23 22 21 22 24 27 31 33 35 40 45 47 49 51 52 51 49 49 49 51 52 51 50 50 52 52 50 50 53 54 54 52 51 51 50 49 52 54 56 60 56 43 33 34 36 34 29 26 25 25 24 25 27 29 31 33 40 50 57
59 59 58 59 60 60 60 60 59 54 44 35 29 27 29 32 37 39 37 34 30 27 26 25 24 24 23 21 20 21 22 24 28 32 32 35 40 44 47 48 49 49 48 47 48 49 50 49 49 50 51 52 50 49 51 52 52 51 49 49 49 49 50 51 53 57 58 49 38 34 35 35 30 26 26 26 24 24 26 28 31 35 37 46 57
61 62 61 61 61 61 62 62 61 60 54 46 35 28 26 26 29 33 34 33 31 28 27 25 23 22 21 20 19 20 21 22 25 30 31 32 34 38 44 46 47 48 47 47 47 48 49 48 48 50 51 50 49 48 49 50 50 49 48 48 49 50 49 49 50 53 54 51 44 36 36 37 32 26 26 27 24 25 26 25 29 38 40 44 54
65 64 63 63 63 62 63 62 62 62 60 58 51 42 33 27 26 26 27 29 29 28 27 24 22 21 19 19 19 19 21 21 23 26 30 33 33 33 37 41 45 46 46 45 46 47 48 48 47 48 48 48 48 47 47 48 47 45 45 45 45 46 46 45 47 49 51 50 45 40 39 37 33 28 26 26 25 27 30 26 26 36 46 51 57
68 68 67 65 65 64 63 63 63 63 63 63 62 58 50 41 33 28 26 26 27 27 27 24 22 21 19 20 20 19 20 21 22 24 28 33 35 34 33 35 39 42 44 44 45 45 46 47 47 47 46 46 46 46 46 45 44 42 40 40 40 40 40 41 42 44 46 48 45 43 41 36 31 30 27 25 25 27 31 30 28 37 50 60 67
72 72 71 70 68 66 65 65 65 65 65 66 66 65 63 58 50 42 35 31 28 28 28 26 25 23 21 21 20 20 21 21 22 24 26 31 34 35 34 33 34 36 39 41 42 42 42 42 44 46 46 45 45 46 46 46 46 44 41 41 41 41 42 43 43 43 46 49 47 44 43 36 31 29 26 24 26 28 33 36 36 42 52 62 74
76 77 75 72 69 67 67 66 66 67 66 66 66 66 66 66 64 59 53 46 40 35 32 31 30 27 24 23 22 22 23 23 23 25 27 29 32 35 35 35 33 33 34 36 39 39 38 38 39 41 44 45 45 45 45 45 46 44 42 42 42 42 43 44 45 46 48 49 47 46 47 39 30 29 26 23 27 32 37 43 46 50 55 58 67
72 76 78 78 74 71 70 70 70 70 69 69 69 68 68 68 68 67 64 60 56 50 44 39 36 33 30 27 26 26 25 26 27 27 29 30 32 34 36 35 35 33 32 34 36 36 36 36 36 37 38 40 41 41 41 42 43 42 40 40 41 41 42 43 44 46 50 52 50 53 56 45 31 29 29 27 32 39 43 52 60 63 65 65 66
66 65 70 77 80 80 77 74 73 73 71 71 70 70 71 72 71 71 69 68 66 62 57 51 45 41 39 35 31 30 29 29 30 30 31 32 33 35 36 37 37 36 33 32 32 33 34 35 35 35 35 35 35 35 36 37 37 37 37 36 37 38 40 45 48 51 56 60 62 61 58 50 36 30 33 35 38 44 48 57 71 75 75 76 75
74 66 62 62 67 75 78 77 75 74 71 69 69 70 73 74 74 74 73 72 72 71 68 64 58 52 48 43 38 34 32 32 32 33 34 34 35 38 40 40 40 38 36 34 32 31 31 32 33 34 33 33 33 33 33 33 32 32 32 32 33 34 37 44 52 59 64 68 68 59 51 52 46 36 41 49 48 48 51 60 75 81 79 80 79
72 71 68 59 56 65 75 77 76 74 71 70 69 70 71 71 73 74 75 77 78 78 77 74 70 63 56 51 45 40 36 34 33 35 36 36 37 39 42 45 44 42 40 39 38 35 32 31 32 32 32 32 32 32 31 31 30 30 30 30 30 29 32 38 47 57 65 70 70 58 47 52 52 43 50 61 58 54 54 57 71 81 80 80 81
68 68 72 69 62 64 67 65 66 71 72 72 73 73 71 68 69 72 76 78 79 82 84 81 77 72 65 59 54 47 40 35 35 37 37 38 39 41 45 49 50 50 46 43 43 40 36 34 33 33 33 32 31 31 31 31 31 31 32 32 31 29 29 32 35 43 54 63 68 64 55 54 56 51 58 68 64 57 55 55 64 78 81 82 85
77 73 76 75 71 72 70 62 58 65 74 76 77 78 76 72 68 69 74 78 80 82 85 84 81 76 71 67 62 54 44 39 38 38 38 40 43 46 49 52 55 56 53 49 47 44 41 39 37 36 36 34 33 32 32 33 34 35 36 36 36 35 32 32 34 37 45 55 63 64 60 58 59 57 61 70 66 59 59 57 58 69 81 86 88
87 85 83 79 75 77 80 76 68 68 77 80 79 79 80 78 75 71 73 78 81 80 80 81 81 77 73 70 65 56 46 40 39 39 39 42 47 50 53 54 56 58 56 54 52 50 47 44 41 40 39 37 35 33 33 38 39 38 39 39 40 41 34 31 35 38 43 52 59 63 61 59 59 56 56 62 63 60 64 63 57 65 80 86 87
91 91 90 86 81 78 79 80 78 77 81 83 80 78 79 80 79 76 73 75 78 80 80 80 80 79 73 66 62 56 48 41 41 40 40 44 49 52 54 57 58 59 58 57 56 55 52 48 46 45 42 39 37 34 35 42 44 42 42 42 44 42 32 27 33 38 43 50 55 55 53 50 50 48 47 52 58 64 69 66 61 69 80 83 86
91 94 95 92 88 84 80 79 78 79 81 82 80 78 77 77 78 77 75 74 74 77 81 83 83 82 76 69 64 61 54 47 45 43 42 45 50 53 57 61 62 61 60 59 59 58 56 53 51 48 44 40 37 36 38 44 47 45 44 49 51 42 29 27 34 38 42 48 48 46 44 43 43 44 46 52 60 68 71 67 64 71 79 82 88
85 92 96 94 89 85 84 83 81 79 79 80 79 78 77 76 76 76 77 76 74 76 79 82 84 84 82 77 72 66 60 54 50 45 42 44 48 53 60 64 62 60 59 59 61 61 59 56 52 48 45 41 37 35 38 43 46 45 47 55 54 37 27 33 39 43 49 52 50 47 44 42 43 44 47 53 62 70 72 66 63 70 80 86 90
74 80 87 91 90 87 84 83 83 81 79 79 79 78 77 75 73 73 75 76 77 76 76 79 84 85 84 82 77 71 65 60 54 48 44 44 47 53 62 64 61 59 58 58 61 61 59 55 50 44 41 39 36 35 38 40 44 46 49 53 47 35 35 43 47 52 59 60 56 53 50 47 46 45 47 54 63 70 70 65 65 74 84 89 90
63 69 75 80 85 88 88 88 88 87 83 80 79 78 77 75 73 73 75 78 78 76 76 78 82 84 85 83 81 76 71 65 59 52 47 45 47 53 59 61 60 60 59 58 58 58 56 52 46 40 37 37 37 37 40 43 49 51 47 44 41 39 46 53 56 61 65 62 58 57 55 52 48 46 48 56 63 68 68 69 74 82 89 92 93
52 59 65 70 76 83 90 94 95 94 91 85 80 77 76 75 74 74 76 79 80 79 79 80 83 85 86 84 82 78 74 70 65 59 53 50 50 52 55 57 60 62 61 59 56 54 52 50 46 42 41 41 40 39 41 46 53 54 48 45 47 50 57 64 67 68 69 66 63 59 54 52 53 52 54 57 62 69 74 78 82 87 93 96 97
46 51 58 66 72 79 89 95 98 99 96 89 83 78 75 73 73 73 76 80 82 82 81 81 83 85 85 84 82 79 75 72 68 64 60 56 54 53 54 55 59 62 62 61 58 56 54 53 50 47 47 47 46 47 49 52 56 58 56 56 59 63 68 72 72 73 75 74 70 63 54 52 57 59 58 60 69 79 85 87 89 92 94 97 97
41 46 52 60 69 76 84 91 95 95 92 90 85 78 74 72 73 74 77 80 83 83 82 82 82 82 83 82 81 79 76 74 71 68 65 62 59 57 55 55 58 62 64 63 61 59 58 56 54 53 53 54 57 61 62 62 62 64 65 66 68 71 74 75 75 77 78 75 72 66 57 54 60 63 63 69 80 86 89 91 94 95 95 95 94
39 43 48 56 71 83 84 80 82 84 84 87 88 83 78 75 73 73 76 79 81 81 80 80 80 80 80 80 79 79 77 75 73 71 69 67 64 61 59 58 59 63 66 64 63 63 63 62 61 60 60 63 68 71 69 67 69 72 73 74 75 76 77 78 78 77 74 69 67 62 54 54 62 67 72 80 87 90 93 96 96 94 93 91 89
45 44 44 51 68 85 83 72 73 77 78 81 87 87 84 80 76 74 75 75 77 78 79 80 80 78 77 76 77 79 78 75 73 72 71 70 69 66 65 63 64 68 70 69 69 70 69 68 69 68 69 72 74 75 75 75 77 78 78 77 77 77 78 79 79 78 74 68 63 59 57 62 69 74 80 87 92 95 97 95 91 89 90 91 93
55 50 47 47 53 63 67 68 72 78 77 78 82 84 84 80 75 73 71 69 70 72 74 74 73 71 70 71 73 76 77 75 72 70 70 70 68 67 66 64 65 68 68 67 69 71 72 73 74 75 76 78 78 78 78 79 78 77 76 76 76 76 78 81 82 81 76 71 67 66 68 72 76 81 88 92 94 95 93 90 88 89 93 96 99
65 60 55 52 49 50 53 60 69 77 79 77 76 77 80 79 72 67 64 61 61 62 62 61 60 60 62 65 67 71 72 69 66 66 67 67 66 65 64 62 60 60 60 62 67 71 72 74 75 76 78 79 80 80 80 79 78 76 74 75 76 77 79 82 84 82 76 72 71 72 74 77 81 86 91 92 93 94 93 90 90 94 98 100 100
72 72 67 62 59 57 55 56 65 75 80 78 74 71 72 74 73 68 64 59 56 55 56 55 54 55 58 60 61 63 64 62 61 63 66 66 66 66 65 63 62 60 60 64 70 72 73 73 74 75 77 79 80 80 78 76 76 74 72 74 76 77 79 82 84 84 79 74 73 74 77 82 86 88 90 91 93 96 97 95 95 97 100 100 99
75 80 78 72 68 66 63 60 64 71 77 79 77 70 64 65 69 70 69 67 61 56 54 55 56 58 60 61 63 64 65 65 66 68 69 69 70 70 70 69 67 67 68 71 73 73 72 73 74 75 77 79 79 77 76 74 73 71 71 73 76 78 80 81 83 86 83 78 75 80 87 90 91 91 93 94 96 99 100 99 99 100 100 100 100
79 83 83 77 73 71 68 64 65 70 74 79 80 76 71 71 71 70 72 73 69 62 58 58 61 63 63 63 65 66 67 69 70 71 71 72 73 73 73 73 71 71 73 76 77 76 75 75 74 74 75 76 76 75 75 73 70 68 70 74 76 77 78 80 82 86 88 85 83 88 94 95 95 96 96 95 97 100 101 99 100 100 100 101 100
84 90 90 86 84 83 80 77 76 75 77 79 80 80 82 83 79 75 74 72 70 65 61 60 63 66 66 66 66 67 69 71 73 73 74 75 75 76 76 76 75 75 77 79 79 78 77 76 75 73 72 73 73 73 74 72 69 68 70 72 74 75 77 80 83 86 90 91 91 94 96 95 95 98 97 96 98 101 99 97 98 100 100 100 97
91 96 97 96 96 95 94 92 90 85 84 84 82 81 84 86 83 80 77 73 71 68 64 61 63 66 69 71 72 73 75 76 77 78 79 79 79 79 79 79 79 79 80 80 80 79 77 76 74 71 70 70 70 71 72 71 70 70 70 71 73 75 77 81 85 87 87 85 81 79 79 78 83 92 98 98 99 101 100 97 98 100 99 96 88
98 99 100 100 100 98 97 98 97 93 90 90 88 85 86 88 86 83 80 76 72 70 66 62 63 65 68 73 76 77 79 79 80 81 83 83 84 85 84 82 82 81 81 80 80 79 78 76 74 72 71 71 69 69 70 70 70 71 72 72 74 76 78 81 85 88 90 86 77 69 65 65 71 84 96 99 98 99 100 99 99 100 97 89 77
96 97 98 99 97 94 93 96 97 94 89 88 88 87 89 91 90 88 84 79 74 71 69 69 71 73 73 75 76 78 79 80 82 84 85 87 89 90 89 87 85 84 83 81 80 79 78 76 75 73 72 72 72 71 70 70 70 71 71 72 74 76 79 81 84 87 89 88 83 77 75 75 77 83 93 99 99 98 99 99 100 100 93 80 69
90 90 90 90 88 85 85 89 92 92 88 85 83 82 84 88 90 91 90 86 80 76 72 72 76 79 81 81 80 81 81 82 84 88 90 91 93 94 93 92 92 91 89 87 85 83 81 79 76 74 72 72 72 72 71 70 70 71 72 72 75 78 80 83 86 87 88 89 89 87 86 84 82 83 90 97 99 99 100 101 100 95 84 72 67
88 89 87 85 81 78 79 82 86 89 89 85 80 77 77 80 83 87 90 90 87 83 80 78 77 76 78 79 79 81 83 85 88 90 91 91 93 92 90 92 95 97 96 94 91 89 86 83 79 76 73 72 72 71 70 69 69 71 72 74 76 80 83 85 87 88 88 90 92 92 90 87 83 84 91 98 100 100 101 99 93 84 74 69 67
87 88 89 87 82 78 78 81 83 86 88 87 82 79 79 79 77 77 78 81 84 85 86 86 83 77 76 77 76 76 81 85 86 85 84 86 90 91 90 91 96 98 98 97 95 92 89 85 82 79 76 74 72 70 69 69 70 71 73 76 82 87 88 87 87 86 86 87 88 89 91 93 91 91 95 99 101 100 99 95 87 78 71 68 67
90 89 89 89 85 80 79 83 86 87 88 87 83 82 83 82 80 76 71 70 73 79 84 86 84 79 79 77 71 68 71 77 80 80 79 83 87 86 85 90 96 98 98 98 95 92 88 85 83 81 79 77 75 74 72 72 72 73 75 79 84 88 89 88 87 87 87 90 93 94 96 98 99 97 98 101 101 99 96 92 84 76 71 67 66
96 93 91 90 88 83 81 84 88 89 89 87 84 83 84 84 83 81 76 70 69 71 75 78 79 79 80 76 70 68 72 78 83 84 83 87 89 83 79 86 96 99 99 99 96 91 88 85 83 82 82 80 79 78 76 76 76 76 79 83 88 90 91 92 90 89 89 92 96 98 99 100 100 99 99 100 100 98 94 88 79 72 68 68 68
100 95 91 90 90 89 88 90 91 89 87 86 83 83 86 88 88 87 83 78 74 72 71 72 75 79 82 79 75 77 83 88 91 91 89 91 92 86 81 89 99 101 99 99 95 91 89 86 84 85 86 85 82 80 78 77 78 80 83 88 92 93 92 90 87 85 88 93 96 99 101 100 100 100 100 100 100 95 87 78 72 68 68 69 70
101 99 94 90 88 89 92 95 96 93 89 86 83 84 89 94 96 95 91 87 83 80 79 79 79 81 83 82 80 84 89 93 94 93 91 91 92 90 90 95 100 100 99 97 94 92 91 89 88 91 93 92 90 87 78 71 74 82 89 91 90 86 84 85 85 87 90 93 95 98 101 100 99 100 100 97 93 86 77 71 70 70 70 70 71
100 100 99 95 91 91 92 95 97 97 95 92 91 92 96 98 99 100 99 96 94 92 91 91 89 88 88 88 87 89 93 95 95 95 94 93 95 96 98 98 98 98 96 94 93 94 95 94 94 97 98 98 99 96 83 67 67 82 95 97 92 85 84 87 92 94 96 95 94 97 100 101 99 98 95 90 83 76 72 70 71 72 71 72 72
100 100 100 98 96 96 96 96 97 97 98 98 98 99 100 100 100 100 100 100 99 99 99 98 98 97 96 95 94 94 96 98 98 99 99 98 99 100 100 100 98 97 96 95 95 97 100 99 98 100 101 99 100 100 91 76 73 85 98 101 98 95 94 95 98 99 99 99 98 99 100 99 95 91 86 81 77 74 73 72 73 73 73 72 72
100 101 100 100 99 99 100 100 99 98 98 99 99 98 99 100 100 100 100 100 100 100 100 100 100 100 100 99 99 99 99 100 101 101 100 100 100 100 100 100 100 99 99 98 98 99 100 100 100 100 101 100 100 100 98 92 90 95 100 100 99 100 100 100 101 100 98 98 100 100 98 94 90 86 82 79 78 78 77 75 73 74 74 74 74
100 100 100 100 100 100 100 100 100 100 100 100 99 99 99 100 99 99 100 100 100 100 100 100 100 100 100 100 100 100 100 100 100 100 100 100 100 100 100 100 100 100 100 100 100 100 100 100 100 100 100 100 100 100 100 99 99 100 101 100 99 100 100 99 97 95 93 92 93 93 91 88 85 82 82 83 82 81 79 76 75 76 76 76 76
100 100 101 100 100 100 100 100 100 100 100 100 100 100 100 100 100 100 100 100 100 100 100 100 100 100 100 100 100 100 100 100 100 100 100 100 100 100 100 100 100 100 100 100 100 101 101 100 100 100 100 100 100 100 100 100 100 100 100 100 99 96 93 89 86 85 87 89 91 90 88 86 84 83 84 85 84 83 81 79 79 78 79 79 80
100 100 100 100 100 100 100 100 100 100 100 100 100 100 100 100 100 100 100 100 100 100 100 100 100 100 100 100 100 100 100 100 100 100 100 100 100 100 100 100 100 100 100 100 100 100 100 100 100 100 100 100 100 100 100 100 100 100 100 100 98 95 91 87 85 85 87 89 90 89 89 87 86 85 86 86 85 84 83 82 82 81 81 81 81
100 100 100 100 101 100 100 100 100 100 100 100 100 100 100 101 100 100 100 100 100 100 100 100 100 100 100 100 100 100 100 100 100 100 100 100 101 101 100 100 100 100 100 101 100 100 99 99 99 99 99 99 99 100 100 99 100 100 99 100 100 98 96 93 92 91 91 91 90 89 89 88 87 86 85 84 83 82 81 80 80 80 80 82 82
100 100 100 100 100 100 100 101 101 100 100 100 100 100 100 100 100 100 100 100 100 100 100 100 100 100 101 101 100 100 100 100 100 100 100 100 101 101 100 100 99 99 100 99 98 96 95 95 94 94 92 92 93 96 98 99 98 98 98 98 98 97 96 95 94 93 92 90 88 87 86 85 83 82 81 81 81 81 81 80 81 81 81 81 79
Wind_Speed
45 43 42 41 41 40 40 40 41 42 41 40 39 38 36 34 32 30 29 28 27 25 24 22 21 20 20 19 18 17 18 19 19 20 20 20 18 18 17 17 17 15 14 14 14 14 14 15 17 19 20 19 18 16 16 16 15 16 16 16 15 15 13 11 12 12 9 7 7 7 7 9 9 10 10 9 11 13 13 13 13 12 11 10 8
47 45 43 42 41 41 40 40 41 42 43 43 42 40 39 37 35 34 32 31 30 29 27 25 24 23 22 21 20 19 19 19 20 21 22 21 20 19 19 19 18 17 17 16 16 15 15 15 15 16 19 21 20 20 19 18 18 19 18 18 18 17 15 13 13 14 12 8 6 6 7 9 9 8 8 10 12 14 14 14 13 11 10 10 9
48 46 45 43 42 41 41 41 41 41 43 44 45 43 42 41 39 38 36 34 33 32 30 29 27 26 25 24 23 22 21 20 20 21 22 22 22 21 21 20 20 19 18 17 17 16 17 16 16 15 16 19 20 21 21 21 20 21 20 20 20 18 16 14 14 15 15 12 8 7 8 8 8 7 8 10 13 15 16 16 14 12 11 11 11
49 47 46 44 43 42 41 41 41 41 42 44 46 46 45 44 43 42 40 38 36 35 33 32 31 30 29 27 26 25 24 22 22 22 23 23 23 23 22 22 22 21 20 19 18 18 18 18 17 16 16 17 18 19 20 20 20 20 19 19 18 17 16 15 15 16 17 15 12 10 10 10 8 7 8 10 13 15 16 17 16 14 12 12 12
49 49 48 46 44 43 42 41 41 42 43 44 45 46 46 46 46 45 44 42 40 38 36 35 34 33 32 30 29 28 27 25 23 23 24 24 24 24 23 23 23 23 22 21 20 19 19 19 18 17 18 19 18 18 18 18 18 18 17 17 17 17 16 17 17 17 18 17 15 12 12 12 10 8 9 12 14 15 16 16 16 15 13 13 14
49 49 48 48 46 45 43 42 41 41 42 43 44 45 46 47 47 47 47 45 43 41 39 37 36 35 33 32 31 30 29 28 26 25 24 25 25 25 25 25 24 24 24 23 22 22 21 20 19 19 19 20 20 18 18 17 18 18 17 17 17 17 18 18 18 18 19 19 18 16 14 14 13 10 9 13 16 18 18 17 15 15 15 14 14
49 49 49 48 48 46 45 43 41 40 40 41 42 43 45 46 47 47 47 47 46 45 42 40 37 36 34 33 33 32 32 31 30 27 26 26 26 26 27 27 26 25 25 24 24 23 23 22 21 20 20 21 20 20 19 18 18 19 18 18 18 18 19 19 18 19 19 19 19 18 17 16 15 12 11 14 16 17 19 20 17 15 16 16 14
47 48 48 49 49 48 46 44 42 40 39 39 39 40 42 44 45 46 47 47 47 46 44 42 39 37 36 35 34 34 34 34 33 31 29 28 27 27 27 28 28 27 26 26 25 24 24 23 23 22 21 21 21 20 20 20 20 20 19 19 19 19 20 20 19 19 19 19 19 18 18 18 16 14 13 14 16 16 17 20 19 17 17 17 15
44 45 46 48 48 48 46 45 44 42 40 39 39 39 39 40 42 44 45 47 47 46 45 44 42 41 39 38 37 37 36 36 35 34 32 30 29 28 27 27 28 29 28 28 27 26 25 24 24 24 23 22 21 21 21 21 21 21 20 19 20 20 20 20 19 19 19 19 19 18 18 18 16 15 14 14 16 17 17 18 19 18 17 15 14
38 41 44 47 48 48 47 46 45 44 42 41 40 39 38 38 40 41 43 45 45 46 45 45 45 44 42 41 40 39 39 38 37 35 33 32 30 30 28 27 27 28 29 29 29 28 27 26 25 25 24 24 23 22 22 22 22 22 21 21 21 20 20 20 20 19 19 20 19 17 18 18 16 15 15 15 16 17 17 18 18 17 16 14 12
38 38 41 44 46 47 47 47 46 45 44 43 42 41 40 39 39 39 40 42 43 44 45 45 46 45 44 43 42 41 40 39 38 37 35 33 32 31 30 28 27 27 28 29 29 28 28 28 27 26 25 25 25 24 23 23 23 23 23 22 22 21 22 21 20 19 19 19 18 17 18 19 17 16 16 17 17 17 17 17 17 16 15 14 13
39 39 39 40 42 44 46 47 46 45 44 43 43 43 42 42 41 40 40 40 41 42 43 44 45 45 44 44 43 42 41 39 39 38 36 34 33 32 31 30 29 28 28 29 29 28 28 28 28 27 26 26 25 25 25 24 24 24 23 23 23 23 22 21 20 19 18 18 18 19 19 20 19 17 17 18 18 18 17 17 16 15 14 13 13
35 38 38 38 39 43 46 46 46 45 45 44 43 43 43 43 43 42 40 39 39 41 42 43 44 44 44 44 43 42 40 39 38 38 37 35 34 33 33 32 31 30 29 29 29 29 29 29 29 28 27 26 26 25 25 25 25 25 24 24 25 24 23 22 20 18 18 19 21 21 20 20 20 18 16 17 19 19 18 17 15 14 14 14 12
32 36 38 38 39 41 44 44 44 46 46 46 44 43 43 43 43 42 40 39 39 40 41 42 43 43 44 44 43 42 40 38 38 37 37 35 34 34 34 33 33 32 31 30 30 30 31 31 30 29 28 27 27 26 25 25 25 25 25 26 26 26 25 24 22 21 20 22 24 24 21 20 20 19 16 18 20 20 19 18 17 16 16 15 14
31 35 39 40 40 42 42 41 41 45 47 48 47 46 44 43 42 42 41 38 37 37 38 40 41 43 43 43 43 43 41 38 37 37 36 36 35 35 35 35 35 34 33 32 32 31 31 31 31 30 28 28 27 26 25 24 24 25 25 25 25 25 25 25 24 23 23 23 25 25 23 21 20 20 19 20 21 21 20 20 20 19 18 17 16
29 33 37 39 41 43 43 41 39 43 46 48 48 48 47 45 42 41 41 39 36 34 35 37 39 41 42 43 43 44 41 39 37 37 36 36 36 36 36 36 36 36 35 34 33 32 31 31 31 30 29 29 28 27 26 25 25 25 25 25 24 24 24 24 24 24 24 24 25 25 24 23 22 22 22 22 23 22 21 22 22 21 20 20 18
22 27 33 37 39 41 42 42 41 41 44 47 48 48 48 47 44 42 42 42 40 36 33 33 35 38 40 42 43 43 41 39 37 36 36 36 37 37 37 37 37 37 36 35 34 34 33 32 32 31 30 29 28 27 27 27 27 27 27 26 25 25 25 24 23 24 24 24 24 25 25 25 25 24 23 24 24 23 23 23 22 20 21 22 20
14 17 22 28 33 36 39 41 42 42 44 46 48 48 47 47 46 44 42 42 41 39 35 33 33 34 37 40 42 42 41 39 37 36 36 36 37 38 38 38 38 38 36 35 34 34 34 34 33 33 32 30 29 28 28 28 28 28 28 27 27 27 27 25 23 23 23 24 25 26 27 27 27 26 24 23 23 23 24 24 21 20 21 22 21
9 10 12 15 21 27 32 37 40 42 44 47 48 49 48 46 45 44 44 43 41 39 38 36 35 34 35 38 40 42 42 40 38 37 36 36 37 38 39 39 39 38 37 36 35 34 34 34 34 34 33 31 30 29 29 30 30 30 29 28 29 29 27 25 23 22 22 22 23 24 25 26 25 25 24 22 22 22 23 23 20 20 21 22 21
9 10 10 11 14 19 23 28 34 39 42 45 47 48 47 45 44 43 43 43 42 40 39 38 38 37 36 37 39 41 42 41 39 38 36 36 37 38 39 40 40 38 37 36 36 35 35 34 34 34 33 32 30 30 30 31 31 30 30 30 31 30 27 25 24 23 22 22 22 23 24 23 23 24 23 23 22 23 23 22 20 19 20 20 19
12 12 13 13 14 16 18 21 24 29 34 38 42 44 45 43 42 42 42 43 42 41 40 39 39 38 37 37 38 40 41 41 40 38 37 36 37 38 39 40 39 37 36 36 36 35 35 34 33 32 32 31 30 30 31 31 31 31 31 31 31 29 27 27 26 25 25 25 24 24 25 24 24 24 24 24 24 24 23 22 19 17 18 18 18
14 14 16 16 16 17 17 17 17 19 23 28 34 39 41 41 40 40 41 42 43 42 40 39 39 39 38 38 39 39 40 41 41 39 38 37 37 38 39 39 38 37 37 36 36 36 35 34 32 31 30 30 29 29 30 30 31 31 31 30 29 28 28 29 29 28 28 28 28 27 27 26 26 26 26 26 26 25 23 21 19 17 17 17 18
16 16 17 18 19 19 19 18 16 15 16 20 25 30 34 37 38 39 39 41 42 42 41 40 39 39 39 39 40 40 40 41 41 41 40 39 38 38 39 38 37 37 38 38 36 35 35 34 33 31 30 29 28 27 27 28 28 29 28 28 27 28 29 30 30 31 31 31 31 31 30 29 29 29 28 28 26 24 23 21 19 18 18 19 20
18 18 17 18 19 20 20 19 16 14 14 16 19 23 27 31 35 37 38 40 42 43 42 40 40 40 40 40 41 41 41 41 41 41 41 40 39 39 38 38 38 38 39 39 37 36 35 35 34 32 30 29 28 27 26 26 27 27 26 26 26 28 30 32 33 34 35 35 35 35 33 32 31 31 29 27 26 24 23 22 21 20 21 21 22
20 20 19 18 18 19 21 20 18 16 15 15 17 21 24 28 32 35 37 40 42 43 42 41 40 40 40 41 42 42 42 42 42 42 42 41 41 40 39 39 39 39 40 40 39 37 36 36 34 33 31 31 29 28 28 27 26 26 25 26 27 29 31 33 34 36 38 39 39 37 36 34 33 31 29 27 26 25 24 23 23 23 22 22 21
23 22 22 20 18 18 20 21 21 19 18 17 18 19 23 26 30 33 36 39 41 42 42 41 40 40 41 41 42 42 43 43 43 43 43 42 42 41 40 40 39 40 40 40 40 38 37 37 36 35 34 33 32 31 30 28 28 27 27 28 30 31 32 33 34 36 38 39 39 39 37 35 33 31 29 27 26 25 24 25 25 24 23 21 19
25 25 25 23 21 20 21 20 20 21 20 19 20 20 23 26 30 33 36 38 40 42 42 42 42 42 42 42 42 43 44 44 44 44 44 44 43 41 40 40 40 40 41 42 41 41 40 40 39 38 37 36 35 34 33 32 32 31 31 31 32 32 32 32 33 34 36 36 37 36 34 33 32 30 28 27 26 25 25 25 25 23 21 19 19
27 27 27 27 26 26 23 19 19 21 21 20 21 22 23 26 30 33 35 36 38 40 42 42 43 42 42 42 42 43 45 46 46 45 44 43 42 41 41 41 41 41 42 42 41 41 41 42 42 41 41 39 39 38 38 37 36 34 33 33 33 33 32 32 32 34 34 34 34 33 32 31 31 29 27 26 25 24 24 24 23 21 20 20 21
28 29 29 28 28 27 25 21 19 20 21 21 22 23 24 26 29 32 34 34 34 35 37 39 40 41 41 41 41 43 45 44 42 41 42 41 39 39 40 40 40 40 39 38 39 39 41 43 44 44 43 42 42 42 41 40 39 37 36 34 34 33 33 33 33 33 33 33 33 32 32 32 30 29 28 27 26 25 24 24 23 21 21 21 22
29 30 30 29 27 26 25 22 20 20 21 22 23 23 25 26 29 32 34 34 32 32 34 35 36 38 40 41 40 41 41 38 35 36 39 39 38 38 38 38 38 38 37 36 37 39 41 43 44 44 44 44 44 44 43 42 41 40 37 36 35 34 34 34 33 31 31 32 33 32 32 32 31 30 29 28 27 27 26 24 22 22 23 24 24
29 30 31 30 28 26 24 22 20 19 20 21 23 24 25 26 28 31 35 36 34 33 33 35 36 38 41 42 41 42 42 39 37 38 39 39 38 38 38 38 37 37 36 35 36 39 41 43 44 44 44 45 45 44 43 42 41 40 38 36 36 35 35 35 33 31 30 31 33 34 34 34 34 33 33 32 30 28 25 23 22 23 26 27 25
28 30 30 30 29 27 24 21 19 19 19 20 22 23 23 25 27 31 35 37 38 36 35 36 38 40 42 43 43 44 43 42 40 39 39 39 39 38 38 38 37 37 36 35 36 38 40 41 42 42 42 43 43 42 41 40 39 38 37 37 37 36 35 34 32 30 30 31 33 34 36 38 39 39 38 36 32 27 23 21 22 26 28 27 23
26 28 29 27 26 24 22 19 18 17 17 18 20 20 21 24 27 30 32 35 37 38 38 39 40 41 42 43 44 45 44 43 42 40 39 38 37 37 37 37 37 36 36 37 37 38 39 39 40 40 40 41 40 39 39 38 37 36 36 36 37 36 35 33 31 30 30 30 30 33 37 39 40 41 41 36 30 24 21 19 22 27 28 24 20
24 25 24 22 21 21 20 17 17 16 15 15 17 19 20 23 27 29 31 34 37 39 40 41 41 43 44 45 46 47 46 45 45 43 41 39 36 35 36 37 37 38 38 39 40 39 38 38 39 39 39 39 38 38 38 38 38 38 38 37 37 36 35 34 33 33 33 31 30 32 35 36 36 39 39 34 28 23 21 20 22 26 26 22 20
21 22 22 21 21 22 20 18 18 17 15 14 16 18 20 23 27 31 33 34 36 39 41 41 42 43 44 46 47 47 46 46 46 44 42 40 37 35 36 38 41 42 41 41 41 40 39 39 39 39 39 38 38 38 38 39 39 40 40 39 39 38 38 38 37 36 34 32 31 32 32 32 32 34 36 34 28 24 22 22 23 25 24 21 20
19 20 22 24 24 24 22 20 20 19 17 16 17 18 20 23 28 32 34 35 36 38 41 43 45 46 46 47 47 47 46 45 46 45 43 40 38 37 38 41 43 44 44 44 43 41 40 40 40 39 38 39 39 40 40 40 40 41 40 40 40 40 40 40 39 37 35 33 31 30 30 29 29 30 33 33 30 25 22 23 23 23 22 21 20
18 19 20 23 24 24 23 23 22 21 20 18 18 20 22 24 27 33 37 38 38 37 40 44 46 47 47 47 47 47 46 45 45 44 43 41 41 41 42 43 44 45 45 45 44 42 41 41 40 39 38 39 40 41 41 40 41 41 41 41 42 41 40 39 38 36 34 32 31 30 28 26 26 28 31 32 29 25 23 23 23 21 21 22 22
18 19 20 21 23 23 23 24 24 23 22 21 20 21 23 25 27 31 36 39 41 41 42 45 47 48 47 46 45 44 44 44 44 44 43 42 43 44 44 44 45 46 45 44 42 41 40 39 39 39 39 39 40 41 41 41 41 42 42 42 42 41 38 37 36 35 32 31 30 30 28 26 25 27 29 31 30 27 25 23 22 22 23 24 24
16 18 20 21 22 21 21 22 23 23 23 23 22 22 24 26 28 30 33 36 40 43 44 46 48 48 47 46 44 42 42 42 43 43 42 42 42 43 43 44 45 45 44 43 41 40 38 38 37 39 40 40 41 42 42 42 41 42 42 43 42 39 37 36 35 33 31 31 30 30 29 29 26 25 27 31 31 28 24 22 22 23 25 25 25
15 17 19 20 21 22 21 21 21 22 22 23 24 24 25 28 31 32 32 34 38 41 43 44 46 46 46 46 44 41 39 40 41 42 42 41 40 41 42 43 44 44 43 43 41 39 38 37 37 39 41 41 40 41 42 41 41 42 43 42 40 38 36 34 33 30 29 30 31 30 30 30 28 26 29 31 29 24 21 21 22 23 24 24 24
16 16 17 18 20 22 22 21 22 23 24 24 25 27 28 30 32 34 35 36 37 39 40 42 43 44 45 46 43 39 37 37 39 40 41 41 41 40 41 42 44 44 43 41 40 40 40 39 40 42 42 41 40 39 39 40 42 43 43 42 40 38 35 32 29 27 26 27 30 30 31 31 30 29 30 29 25 21 20 21 22 24 24 23 23
16 16 15 16 18 21 22 22 23 25 26 26 27 28 30 32 34 37 40 40 40 40 41 42 42 44 46 45 42 38 37 37 38 39 39 40 41 42 41 42 44 44 43 41 41 43 44 43 43 43 42 40 39 38 38 41 43 42 42 41 38 33 29 27 25 24 24 26 29 31 31 30 29 27 26 24 23 22 21 22 23 24 24 23 22
15 16 16 16 17 18 20 22 23 25 27 29 30 31 33 34 36 39 41 43 43 43 43 42 42 43 44 42 39 37 36 35 36 37 37 38 40 41 41 42 43 43 41 40 43 46 45 44 42 40 37 36 36 35 36 39 41 40 40 40 35 28 25 25 25 25 26 27 29 29 27 26 25 24 23 22 22 22 22 23 24 24 23 22 22
13 15 16 17 17 17 18 20 22 25 27 30 32 34 35 35 36 38 39 41 41 42 41 41 41 42 41 39 37 36 35 35 35 36 36 37 38 39 40 41 42 42 41 41 43 44 42 40 39 36 32 32 31 30 32 35 36 37 38 38 34 30 27 26 25 26 28 28 27 26 25 25 24 23 23 22 22 23 23 23 23 23 22 22 22
11 12 14 15 15 15 16 17 20 23 26 29 30 31 31 31 32 34 35 36 35 36 37 39 40 39 38 37 36 35 35 35 35 35 35 36 38 40 41 41 41 41 41 41 41 40 36 33 32 31 29 28 28 27 31 35 37 37 36 35 33 31 30 27 27 29 30 28 27 27 26 25 25 24 23 23 22 22 20 20 20 21 21 21 22
8 9 10 11 12 12 13 14 16 19 22 25 27 28 27 27 27 30 32 34 34 34 36 37 37 36 35 35 35 34 35 35 35 35 35 37 39 40 40 39 39 39 39 38 38 36 32 27 26 25 25 24 22 21 25 30 32 31 30 29 28 28 28 27 26 26 24 22 22 23 24 24 23 23 23 23 21 20 19 19 19 19 19 20 21
7 6 7 8 8 9 9 10 11 14 17 19 22 24 24 24 25 27 29 31 33 35 35 35 35 35 34 34 34 34 34 34 35 36 37 39 39 39 38 37 37 36 36 34 34 33 30 25 21 20 19 17 16 16 19 22 22 21 21 22 21 21 20 19 19 18 17 17 17 19 21 21 21 21 22 21 20 19 20 20 20 19 18 19 19
5 4 4 4 4 4 5 5 6 8 11 13 16 18 20 21 23 24 25 26 28 30 31 31 31 32 33 34 34 35 35 35 37 38 39 38 36 34 34 34 34 33 33 32 31 30 26 20 17 15 12 11 13 15 16 16 15 15 15 16 15 14 14 14 14 14 16 17 18 18 19 18 18 19 20 20 19 19 20 19 18 18 18 18 18
4 3 2 1 0 1 3 3 4 5 6 7 9 12 13 16 18 19 20 21 22 23 25 27 28 29 31 33 34 35 35 37 38 37 35 35 34 32 31 30 30 29 29 28 25 22 17 13 12 11 10 10 12 13 12 11 11 11 13 14 14 13 13 13 13 14 15 17 17 17 17 17 18 19 19 18 18 17 17 15 15 15 14 14 15
5 6 5 4 3 5 6 7 8 9 8 8 8 8 10 13 15 17 18 19 20 21 23 25 28 29 30 31 32 33 33 33 32 28 27 28 29 28 27 26 24 23 22 20 18 15 12 11 11 11 10 10 10 10 9 10 11 12 13 14 13 12 12 12 13 14 15 16 16 17 17 17 17 17 16 15 14 13 12 11 11 10 10 10 11
7 8 8 7 6 6 8 10 12 13 14 15 15 14 14 15 17 19 21 22 23 24 25 25 26 27 28 28 29 29 28 27 25 23 23 25 27 26 25 23 21 20 19 18 17 15 14 13 13 13 12 10 9 9 11 12 13 13 12 12 12 11 11 12 12 13 13 12 12 13 14 14 14 13 11 10 9 9 8 7 7 8 9 10 12
Wind_Direction
224 225 227 228 229 228 227 226 226 225 225 226 227 229 230 231 231 232 232 233 236 239 242 245 247 249 249 249 249 245 242 240 238 239 241 242 243 243 243 241 240 239 238 238 235 234 235 234 231 230 232 235 236 241 249 256 261 265 270 275 281 289 292 292 292 290 289 293 294 292 296 302 307 307 306 312 323 333 343 345 339 335 334 335 340
224 226 227 229 230 230 230 229 228 228 228 228 228 230 232 234 235 235 235 237 239 242 246 249 251 252 252 251 250 248 246 245 242 241 241 242 243 244 245 245 245 244 242 241 240 239 239 239 237 236 238 240 240 244 249 255 261 265 269 273 279 284 285 286 290 291 291 294 291 290 298 305 308 307 310 320 332 340 346 345 341 337 333 335 346
225 226 228 229 231 231 232 231 231 231 231 230 229 230 232 234 237 238 239 240 242 244 247 250 253 254 254 252 251 250 249 248 245 243 242 242 243 244 245 247 248 249 248 246 245 245 245 245 243 241 242 243 244 246 250 254 260 264 268 271 276 278 278 280 286 291 296 300 300 300 306 310 311 310 314 325 336 343 344 342 340 338 337 342 350
224 226 227 230 231 232 233 233 233 233 233 232 232 231 231 233 236 239 241 243 244 246 248 251 253 255 255 254 252 252 252 250 248 245 244 242 242 244 245 247 249 251 252 251 249 249 248 248 248 246 247 248 249 250 251 254 258 262 265 268 272 275 276 280 284 287 293 298 303 308 312 315 314 312 315 324 336 342 340 338 337 336 340 347 350
224 225 227 229 230 232 233 234 235 234 233 233 233 233 233 233 235 237 240 243 244 246 248 250 252 253 254 254 253 253 254 254 252 248 246 244 243 243 244 246 248 250 252 253 252 251 251 250 250 250 251 253 254 254 254 255 256 259 262 264 269 274 277 280 282 284 288 294 301 307 311 314 314 315 320 324 332 338 335 333 334 334 341 354 355
223 224 226 228 230 232 233 234 235 235 235 234 233 234 234 235 235 237 239 241 243 245 247 248 250 251 253 253 253 254 255 257 257 254 251 247 245 244 244 246 247 248 250 252 253 253 253 253 253 252 253 255 258 259 259 260 261 262 265 267 270 273 275 278 280 280 283 289 296 301 306 310 313 315 319 322 329 335 331 328 333 335 341 357 2
223 224 226 228 230 232 234 235 236 237 237 237 235 235 236 237 237 238 239 241 242 244 245 247 248 249 251 252 253 254 256 258 258 258 255 251 249 247 246 246 247 248 249 250 252 253 254 255 255 254 255 256 259 261 262 263 263 264 266 268 271 273 274 276 277 277 281 285 290 296 300 305 309 312 315 318 325 332 328 323 329 337 341 353 3
223 224 226 228 231 233 235 236 238 239 240 240 240 239 238 239 240 241 241 242 242 244 245 246 247 248 249 250 252 254 256 258 259 260 258 255 252 250 247 247 248 249 249 249 250 252 253 255 256 256 257 257 258 260 261 263 264 265 266 269 272 273 275 276 276 277 280 282 286 291 296 301 305 307 309 313 320 327 323 318 324 334 339 347 358
225 225 226 228 232 235 236 238 239 240 241 241 242 242 242 242 242 243 244 244 245 245 246 247 248 248 249 250 252 254 255 257 258 260 260 257 255 252 249 248 248 250 251 251 252 252 253 255 256 256 257 257 257 259 261 263 265 267 269 271 272 273 273 275 277 278 279 281 284 289 293 296 300 303 303 309 318 322 317 314 318 326 333 342 356
225 226 228 231 234 237 238 239 240 241 241 242 243 243 244 244 244 245 245 246 247 248 248 249 249 250 251 251 253 254 255 257 258 259 260 259 258 256 253 250 249 250 251 253 254 255 254 255 255 256 257 257 257 258 260 262 264 267 269 270 271 272 272 273 275 277 278 279 281 286 290 292 295 299 301 306 314 315 311 310 314 319 326 337 352
224 228 230 233 236 237 238 239 240 241 242 244 245 245 245 245 246 247 247 247 248 249 249 250 250 251 252 253 254 255 256 257 258 259 260 259 258 257 255 253 251 250 250 252 254 256 256 255 255 255 256 257 258 258 260 262 264 266 268 267 268 269 270 272 273 274 275 276 278 282 286 288 291 296 299 304 309 309 306 307 310 314 320 329 341
227 230 231 233 235 237 238 240 240 242 244 246 247 248 248 248 248 248 248 249 249 250 250 251 251 252 252 253 254 255 256 258 259 260 260 259 259 258 257 256 253 251 250 250 252 254 256 256 256 256 256 257 258 260 262 263 264 265 266 266 266 267 267 266 267 268 269 271 274 276 279 285 290 293 299 303 304 303 301 302 305 306 308 313 325
230 234 235 236 237 237 238 241 243 244 247 248 249 249 249 249 249 249 249 250 250 251 252 252 252 252 252 253 254 255 256 258 259 260 260 259 259 258 258 257 256 254 252 252 252 252 253 254 255 255 256 256 257 259 261 262 262 262 263 264 265 266 265 261 257 259 263 267 271 272 275 283 288 290 297 302 300 298 296 295 295 293 292 298 309
234 238 240 241 240 235 234 239 244 248 250 249 248 248 248 248 249 249 249 250 250 251 252 252 253 252 252 252 253 255 256 257 259 260 260 260 259 259 258 258 258 257 255 255 254 254 253 252 253 253 254 254 255 257 259 259 259 259 260 262 263 264 264 260 255 254 257 263 268 272 275 282 285 287 293 298 296 293 290 288 285 282 283 288 297
233 237 240 242 242 237 233 236 242 247 248 248 247 247 248 248 248 248 248 248 250 252 253 253 253 252 252 253 253 254 255 256 258 259 259 260 260 259 258 258 258 258 258 257 257 256 254 253 252 252 251 250 251 253 255 256 257 259 260 260 261 261 261 259 258 257 257 261 267 272 275 279 281 283 288 292 291 289 286 284 281 277 279 283 288
229 234 237 240 242 240 236 237 241 243 244 245 245 246 247 247 247 249 248 247 249 252 253 254 253 253 252 252 252 254 255 256 257 258 259 260 260 260 259 258 258 259 259 258 258 258 256 254 253 251 249 247 247 248 250 253 255 257 259 259 260 260 259 259 259 259 259 261 264 268 271 273 275 278 282 284 286 286 283 281 279 277 278 280 282
230 236 239 241 242 242 239 239 242 242 241 243 245 246 247 247 247 248 248 246 247 249 251 254 254 254 252 251 251 253 254 255 256 257 258 259 259 259 259 258 258 258 258 259 259 259 258 256 254 252 250 247 245 245 247 252 255 256 259 260 261 261 260 258 258 259 259 261 264 266 268 270 272 274 276 278 282 283 282 283 285 283 280 279 279
234 239 242 243 244 244 244 244 245 243 242 244 247 248 248 248 248 249 248 248 248 249 251 253 255 255 253 252 251 252 253 254 255 256 257 258 259 259 259 259 259 259 259 258 259 259 259 257 256 254 252 250 247 246 248 253 257 257 259 262 263 262 260 258 259 261 262 263 265 266 267 269 271 273 274 276 279 280 282 287 291 286 279 278 279
240 241 244 244 244 245 248 249 249 247 246 246 248 250 250 250 250 250 249 250 250 250 250 251 254 255 255 253 252 252 253 254 254 255 255 256 257 258 258 259 258 258 258 258 258 259 259 259 258 256 254 252 249 249 251 256 259 259 259 264 266 263 259 260 264 265 267 268 268 266 267 268 269 271 272 274 277 280 284 289 288 279 274 275 276
255 249 248 242 239 241 246 250 252 252 251 250 250 251 252 252 251 250 250 249 249 249 250 251 252 254 255 254 253 252 252 253 253 253 254 254 256 256 257 257 258 258 258 257 257 258 258 258 258 256 255 254 251 251 253 256 258 259 260 263 264 261 261 265 267 268 269 271 270 268 268 268 268 270 272 276 279 281 284 286 280 272 270 271 272
269 258 252 246 243 243 243 249 254 255 255 255 254 252 252 252 251 251 250 249 248 248 249 250 251 253 254 254 254 253 253 253 252 253 253 253 254 254 255 256 257 257 257 257 257 257 257 257 257 256 255 255 253 253 256 257 259 259 260 261 261 262 265 268 268 268 270 270 269 269 269 269 270 272 275 279 282 283 285 285 281 274 269 268 268
281 267 256 251 250 250 249 249 254 256 256 256 255 253 252 251 252 252 250 248 247 247 249 249 250 252 253 254 254 254 254 254 253 253 253 253 253 254 254 255 256 257 257 256 256 256 256 256 255 255 256 257 257 258 259 260 261 261 261 262 263 264 266 268 269 270 270 269 268 269 269 271 273 275 278 280 283 285 286 285 281 273 266 264 265
292 280 266 257 255 256 256 255 255 257 257 255 254 254 253 251 251 251 248 246 245 246 247 248 248 249 251 252 253 254 254 254 254 253 253 254 254 254 254 255 255 255 255 255 255 255 256 257 256 256 257 259 260 261 261 262 264 265 265 266 268 268 269 269 269 270 269 269 269 268 269 270 273 276 279 282 285 286 285 283 280 274 267 264 265
296 288 277 268 261 259 263 266 265 263 263 258 252 252 254 252 250 249 247 245 243 244 245 246 247 248 249 251 253 253 254 254 254 255 254 255 255 255 255 255 255 254 254 255 255 256 257 258 259 259 261 262 262 264 265 265 266 267 268 270 271 271 270 269 270 270 270 269 269 268 268 269 271 276 280 283 284 282 280 278 277 273 269 267 267
301 294 286 278 270 265 265 269 270 271 272 266 253 246 247 249 247 246 244 242 241 242 244 245 246 248 249 251 252 253 253 253 254 255 255 255 255 255 255 255 255 254 254 255 256 257 258 261 262 263 264 264 265 266 267 266 267 269 270 271 270 270 269 269 269 269 269 268 267 268 268 269 272 277 280 280 277 275 273 273 273 272 270 269 268
304 300 293 286 281 276 271 267 268 271 273 273 264 250 244 245 246 244 242 241 241 242 243 244 246 248 249 251 252 253 253 253 254 255 255 254 255 255 255 256 256 256 256 257 258 258 260 262 263 264 265 265 266 267 267 267 268 269 269 268 267 266 266 267 267 267 267 267 267 267 268 271 274 275 274 271 269 268 269 270 271 269 267 265 261
306 304 298 291 284 279 275 272 271 272 271 272 271 260 246 243 243 243 242 241 241 242 242 243 244 246 249 251 252 251 251 252 253 254 254 253 254 254 254 255 255 255 255 256 257 257 259 260 262 262 263 264 265 265 265 265 265 266 265 265 265 265 266 267 267 268 267 267 267 267 268 269 269 267 265 264 264 264 265 267 267 264 259 254 250
306 305 303 297 288 281 281 281 281 279 274 271 272 266 254 245 242 241 242 243 243 243 243 244 246 248 250 251 251 250 250 252 253 254 254 255 255 255 254 254 254 254 254 255 256 256 257 259 259 259 259 260 261 261 262 263 264 264 264 264 264 265 266 267 267 267 265 263 262 262 262 261 260 259 258 258 258 259 261 263 262 258 251 246 245
305 305 305 303 296 288 285 284 282 283 280 274 270 268 263 255 249 246 245 245 246 248 249 250 252 252 252 252 252 250 250 253 257 259 258 259 260 259 258 257 256 256 257 258 258 257 257 257 257 257 257 257 258 259 260 262 263 263 263 262 262 263 264 265 266 266 263 259 258 257 257 256 254 254 253 252 253 255 257 258 257 251 243 242 246
305 306 306 306 303 296 290 286 282 282 281 277 271 267 264 261 256 251 249 247 248 251 253 254 256 256 255 256 255 254 255 260 264 264 262 262 263 263 262 262 261 260 261 260 258 256 256 256 256 257 257 257 258 259 260 261 262 262 262 261 261 262 262 263 265 266 262 258 255 255 254 253 253 252 250 250 251 253 254 254 252 246 241 242 245
304 306 306 306 305 302 298 293 287 280 277 276 272 266 262 260 257 253 249 246 246 249 253 255 255 255 255 257 258 259 260 262 261 261 261 262 262 262 262 262 261 260 259 257 255 255 256 256 256 257 257 258 258 258 259 260 260 260 260 260 260 261 262 263 264 266 263 258 254 253 254 253 252 250 248 248 249 249 250 249 246 241 241 242 243
303 304 304 304 304 303 301 297 290 282 276 274 271 267 262 259 255 251 247 243 243 245 250 253 253 252 253 255 256 257 259 259 257 258 259 260 260 261 261 261 260 259 256 253 252 253 255 256 257 258 257 257 256 256 256 256 256 256 257 258 259 259 260 262 265 267 267 264 259 256 256 255 254 251 249 247 246 245 243 241 240 239 237 236 237
301 301 301 302 303 303 301 298 292 285 279 273 272 271 265 257 253 251 248 245 244 245 248 251 251 251 251 253 254 255 257 258 258 258 258 258 259 261 261 260 259 256 253 250 249 250 252 253 254 255 255 255 254 254 254 254 254 255 256 257 258 259 260 261 261 260 260 261 261 260 260 262 262 260 255 250 247 243 238 235 236 234 230 229 234
298 296 296 298 298 297 297 295 290 287 283 275 272 271 267 260 255 252 250 247 245 244 245 247 248 249 249 250 251 253 255 256 257 257 257 257 259 260 260 258 255 252 249 248 247 248 249 250 250 251 251 252 252 252 252 252 253 255 257 258 259 260 259 258 256 253 252 252 253 256 259 263 267 267 261 254 247 240 234 232 231 227 225 228 234
291 288 285 284 285 287 289 288 285 284 281 274 268 267 264 259 255 252 251 250 249 248 248 248 247 247 247 247 248 249 251 252 254 255 255 256 257 257 254 252 251 249 247 246 246 246 247 248 249 249 249 249 250 251 251 252 253 255 257 259 260 260 259 258 257 255 253 252 253 255 257 259 261 262 260 256 248 238 231 228 226 224 226 229 229
281 280 278 278 281 285 286 281 277 276 275 271 267 265 260 255 252 251 250 251 252 253 253 251 248 245 245 245 246 247 248 249 251 252 253 254 254 253 251 250 250 250 249 248 248 248 248 249 250 251 250 249 249 250 252 254 256 257 259 261 261 261 261 260 259 257 254 252 252 253 254 255 255 257 257 253 247 240 234 226 223 224 228 228 225
281 276 273 273 277 282 283 278 273 271 269 266 264 264 262 258 253 251 250 249 250 251 251 251 249 246 243 243 244 246 246 248 248 249 249 250 251 251 251 251 251 251 251 251 250 250 251 251 252 253 252 251 250 251 253 256 258 260 261 261 262 262 262 261 259 257 254 252 250 248 248 248 251 255 254 248 242 237 231 224 222 225 226 224 222
289 281 274 270 270 275 277 274 270 268 264 259 257 259 261 261 257 254 252 251 250 249 248 247 248 249 248 247 246 246 246 246 247 247 248 249 249 250 250 251 251 252 252 253 253 253 253 254 254 254 255 254 253 254 255 256 257 258 259 260 260 261 262 261 259 254 251 250 249 247 246 245 244 246 247 244 239 233 226 221 220 220 220 219 219
298 287 279 272 269 270 272 271 269 266 261 257 254 254 256 258 257 255 255 253 250 249 247 246 247 250 251 251 250 249 248 248 249 250 252 252 251 252 252 250 250 250 252 253 254 254 255 256 256 257 256 255 255 256 257 257 256 256 257 257 258 259 259 257 253 248 245 246 246 245 245 246 244 240 240 240 236 229 222 220 220 219 219 219 218
309 296 286 278 270 266 265 265 263 259 256 253 252 250 251 253 254 255 257 256 252 249 247 246 247 249 250 250 251 252 253 253 254 255 256 256 254 253 253 251 248 249 251 253 253 255 256 256 257 256 255 255 255 257 257 257 256 255 255 254 254 254 252 249 245 242 242 246 249 247 247 250 252 246 239 235 231 225 222 225 225 222 220 219 218
315 307 298 289 278 268 262 256 250 248 247 247 247 246 245 246 248 250 253 255 255 252 249 248 248 249 249 250 252 255 256 256 256 257 258 258 255 253 253 251 248 248 250 252 253 254 254 253 253 252 252 252 252 254 255 254 253 253 252 250 249 248 245 241 237 235 239 247 253 254 252 252 252 244 233 227 226 226 226 225 222 219 217 217 218
318 316 310 301 289 276 267 259 250 245 244 242 242 243 243 243 244 245 247 249 251 252 252 251 249 248 248 249 252 255 255 254 254 255 256 256 254 251 250 249 247 247 248 250 251 252 251 251 251 251 251 251 251 251 250 250 248 246 246 246 246 244 241 235 231 232 237 245 253 256 252 244 237 229 223 222 226 227 222 215 213 215 217 219 218
318 320 318 310 299 287 277 268 258 249 246 243 242 243 244 245 245 246 246 246 247 248 250 250 250 249 249 250 252 253 253 252 252 252 251 250 249 248 246 245 245 245 245 246 248 249 250 251 252 252 252 253 252 247 244 245 244 238 235 237 237 235 233 231 230 234 239 243 247 247 240 226 217 216 220 225 226 222 214 209 210 215 218 218 216
317 319 318 312 304 294 284 276 267 259 253 250 248 248 249 250 251 250 250 250 250 250 250 250 250 251 252 252 252 251 249 248 247 246 245 245 245 245 243 243 244 243 242 242 244 246 247 248 251 251 251 252 247 233 223 226 232 233 229 226 222 219 221 228 232 235 236 234 230 225 219 214 215 220 223 221 216 212 210 210 213 216 217 216 216
314 316 317 311 302 292 282 276 270 265 262 260 259 258 258 256 256 255 256 257 256 253 251 250 250 250 251 251 250 248 246 245 242 241 241 241 240 240 239 240 240 240 238 238 240 242 243 244 247 249 249 248 241 224 207 208 217 224 225 221 217 214 217 223 226 225 221 215 208 205 207 212 217 217 212 207 208 211 213 214 215 216 217 217 219
313 314 317 310 298 287 277 270 266 264 263 262 262 263 263 261 257 254 254 256 257 254 249 247 245 244 244 245 245 245 243 240 238 236 236 235 235 234 234 234 235 235 235 234 235 237 239 238 239 241 241 237 231 219 207 206 213 217 217 215 214 211 210 212 213 211 207 203 202 202 203 206 206 204 201 202 207 212 213 212 213 215 217 218 221
324 320 318 308 295 284 275 265 259 256 254 253 254 256 258 257 252 246 242 243 246 245 243 241 239 237 237 237 237 236 233 230 228 227 226 224 223 224 225 226 227 228 228 229 229 231 233 231 226 226 227 221 210 202 201 203 205 204 201 200 203 203 200 201 204 201 196 195 197 197 196 196 197 199 200 202 205 206 207 208 209 211 214 218 222
338 334 325 310 296 281 263 250 241 236 232 231 234 237 239 241 239 234 227 225 227 228 228 226 225 226 227 228 227 224 220 218 218 217 214 210 209 210 211 213 215 216 217 218 219 222 224 219 209 206 206 196 182 181 183 183 182 181 179 180 183 184 185 189 192 189 187 188 189 189 191 193 194 195 196 196 197 199 200 203 207 212 217 223 230
16 35 40 13 39 154 161 163 163 172 184 195 204 208 209 210 211 209 204 201 200 201 201 202 204 207 210 213 213 212 210 208 207 202 196 194 197 198 195 193 195 198 200 200 200 202 202 193 183 183 182 167 159 162 166 167 165 163 159 158 159 161 164 171 175 177 179 182 181 180 183 186 188 188 188 189 191 195 198 202 210 218 226 234 243
63 72 73 71 86 108 120 124 122 122 125 133 148 161 171 175 173 170 168 169 169 169 172 179 185 191 194 195 195 195 195 194 191 181 171 172 180 184 180 176 177 178 178 175 172 169 166 160 159 163 163 154 145 147 155 163 164 159 151 148 149 154 159 165 169 172 175 178 179 179 181 185 189 191 192 194 199 205 212 219 228 236 244 254 264
84 87 85 82 85 100 114 117 116 114 113 115 119 126 138 150 153 149 146 147 149 150 151 155 161 168 172 171 170 171 172 171 168 161 153 151 155 159 161 162 162 161 159 156 152 149 149 150 150 150 148 146 147 152 158 161 161 159 154 151 152 156 161 167 173 177 180 182 185 187 187 189 193 196 198 202 210 219 229 242 254 264 272 279 284